Weather in Turkestan

Kazakhstan     43°18′02″N   68°16′13″E
temp.,
°C
wind,
m/s
gust,
m/s
humid.,
%
clouds,
%
prec.,
mm/h
press.,
hPa
HPBL,
m
4 december, sat
sat400:00+10ne2257100 0.0 102347
03:00+9ene2252100 0.0 102218
06:00+9wsw2247100 0.0 102232
09:00+9nne2252100 0.0 102214
12:00+12sw2245100 0.0 1022308
15:00+14wnw3240100 0.0 1020475
18:00+11nw224692 0.0 102013
21:00+10n1154100 0.0 102010
5 december, sun
sun500:00+9w335482 0.0 101933
03:00+7wnw3359100 0.0 102028
06:00+7w3361100 0.0 102129
09:00+6wsw2259100 0.0 102224
12:00+8wsw3445100 0.0 1024452
15:00+9wsw3342100 0.0 1023655
18:00+7sw1156100 0.1 1024348
21:00+4ssw116946 0.0 102410
6 december, mon
mon600:00+5ese116687 0.0 102411
03:00+5n016595 0.0 102410
06:00+4wnw226812 0.0 102413
09:00+2nw22765 0.0 102518
12:00+7nw22565 0.0 1026311
15:00+9nw22480 0.0 1024610
18:00+7nw33554 0.0 102518
21:00+5nnw2261100 0.0 102516
7 december, tue
tue700:00+5ne1263100 0.0 102510
03:00+4wnw0070100 0.0 102410
06:00+4nw2262100 0.0 102410
09:00+4nw1261100 0.0 102510
12:00+8wnw1145100 0.0 1026201
15:00+11nw2238100 0.0 1025399
18:00+8wnw2248100 0.0 102613
21:00+5ne115982 0.0 102710
8 december, wed
wed800:00+4s2270100 0.0 102712
03:00+3w227696 0.0 102810
06:00+2wnw1179100 0.0 102810
09:00+2nnw007962 0.0 102910
12:00+8e01534 0.0 1030254
15:00+11e014411 0.0 1029518
18:00+6n01581 0.0 102910
21:00+5ene44580 0.0 103145